User: anonymous   Login
Location: Unspecified
(0.0000°N, 0.0000°E)
Time: 16:56:39
(UTC+00:00)
Language:

Nimbus 6 - Orbit

View from above orbital plane
View from above orbital plane
View from above satellite
View from above satellite

Ground track
Ground track

The orbit data is extracted from the following two-line orbital elements,

1  7924U 75052A   19015.65885122 -.00000048  00000-0 -44124-5 0  9998
2  7924 100.1741 267.6963 0007303 277.6256 135.5392 13.40713933133307
Epoch (UTC): 15 January 2019 15:48:44
Eccentricity: 0.0007303
inclination: 100.1741°
perigee height: 1101 km
apogee height: 1112 km
right ascension of ascending node: 267.6963°
argument of perigee: 277.6256°
revolutions per day: 13.40713933
mean anomaly at epoch: 135.5392°
orbit number at epoch: 13330

The dashed part of the orbit path shows where the satellite is in the earth's shadow,  

DLR